Regional Weather Roundup
Issued by NWS Albany, NY

Current Version | Previous Version | Graphics & Text | Print | Product List | Glossary Off
Versions: 1 2 3 4 5 6 7 8 9 10 11 12 13 14 15 16 17 18 19 20 21 22 23 24 25 26 27 28 29 30 31 32 33 34 35 36 37 38 39 40 41 42 43 44 45 46 47 48 49 50

000
ASUS41 KALY 220210
RWRALY

NEW YORK STATE HOURLY WEATHER ROUNDUP
NATIONAL WEATHER SERVICE ALBANY NY
900 PM EST TUE FEB 21 2017

NOTE: "FAIR" INDICATES FEW OR NO CLOUDS BELOW 12,000 FEET WITH NO
SIGNIFICANT WEATHER AND/OR NO OBSTRUCTIONS TO VISIBILITY.

NYZ032-033-038>043-046>054-057>066-NYZ062>081-082-084-220300-
EAST


CITY           SKY/WX    TMP DP  RH WIND       PRES   REMARKS
ALBANY         CLOUDY    42  25  50 S15G21    30.10S
GLENS FALLS    CLOUDY    41  22  46 S5        30.09S
POUGHKEEPSIE   NOT AVBL
NEWBURGH       MOCLDY    41  32  70 CALM      30.16F
ISLIP          CLOUDY    40  35  83 S7        30.19F
NEW YORK CITY  CLOUDY    44  33  65 S9        30.19F
CENTRAL PARK   CLOUDY    43  32  65 VRB5      30.21F
$$

NYZ005>009-017-018-044>046-055-056-220300-
CENTRAL


CITY           SKY/WX    TMP DP  RH WIND       PRES   REMARKS
FULTON         CLOUDY    41  32  70 SE5       30.00F
SYRACUSE       LGT RAIN  43  31  62 SW6       30.02R
ROME           CLOUDY    38  28  67 E3        30.05F
ELMIRA         NOT AVBL
BINGHAMTON     NOT AVBL
$$

NYZ026>034-041>043-087-220300-
NORTH


CITY           SKY/WX    TMP DP  RH WIND       PRES   REMARKS
WATERTOWN      CLOUDY    45  30  55 S12G20    29.97F
FORT DRUM      NOT AVBL
OGDENSBURG     CLOUDY    40  30  65 S6        29.95F
MASSENA        CLOUDY    33  31  92 CALM      29.98R
SARANAC LAKE   CLOUDY    38  21  50 SW9       29.95F WCI  31
PLATTSBURGH    NOT AVBL
$$

NYZ001>004-010>016-019>021-085-220300-
WEST


CITY           SKY/WX    TMP DP  RH WIND       PRES   REMARKS
NIAGARA FALLS  CLOUDY    48  43  82 SW3       29.95R
BUFFALO        CLOUDY    45  41  86 S8        29.96R
DUNKIRK        CLOUDY    47  43  86 SW5       29.98R
JAMESTOWN      MOCLDY    48  34  57 S8        29.97S
WELLSVILLE     MOCLDY    46  26  45 S6        30.00S
ROCHESTER      CLOUDY    48  39  71 S5        29.95F
PENN YAN       CLOUDY    45  27  49 S16       29.98S
$$

             KEY
       WCI = WIND CHILL INDEX
       VSB = VISIBILITY
       HX  = HEAT INDEX
$$



USA.gov is the U.S. government's official web portal to all federal, state and local government web resources and services.